Location: Aurora Center
(43.5271°N, 98.5894°W)
Time: 16:20:17
(UTC-05:00)

Explorer 7 - Pass Details

Date: 28 July 2024
Orbit: 445 x 572 km, 50.3° (Epoch: 12 June)

Event Time Altitude Azimuth Distance (km) Brightness Sun altitude
Rises 03:23:20 0° 297° (WNW) 2,860 10.5 -23.4°
Reaches altitude 10° 03:25:43 10° 303° (WNW) 1,954 9.7 -23.2°
Maximum altitude 03:30:05 49° 18° (NNE) 780 7.9 -22.8°
Drops below altitude 10° 03:34:22 10° 94° (E) 1,911 9.9 -22.4°
Sets 03:36:40 0° 100° (E) 2,790 10.7 -22.2°
